Time,TemperatureF,DewpointF,PressureIn,WindDirection,WindDirectionDegrees,WindSpeedMPH,WindSpeedGustMPH,Humidity,HourlyPrecipIn,Conditions,Clouds,dailyrainin,SoftwareType,DateUTC
2013-08-26 00:02:00,63.9,58.3,30.16,WSW,239,3.0,3.0,82,0.00,,,0.00,Wunderground v.1.15,2013-08-26 04:02:00,
2013-08-26 00:04:00,64.0,58.4,30.16,SW,221,3.0,3.0,82,0.00,,,0.00,Wunderground v.1.15,2013-08-26 04:04:00,
2013-08-26 00:06:00,64.1,58.5,30.16,SW,221,3.0,4.0,82,0.00,,,0.00,Wunderground v.1.15,2013-08-26 04:06:00,
2013-08-26 00:08:00,64.3,58.7,30.16,SW,236,3.0,4.0,82,0.00,,,0.00,Wunderground v.1.15,2013-08-26 04:08:00,
2013-08-26 00:12:00,64.5,58.9,30.16,SW,224,3.0,6.0,82,0.00,,,0.00,Wunderground v.1.15,2013-08-26 04:12:00,
2013-08-26 00:14:00,64.6,59.0,30.16,WSW,240,3.0,6.0,82,0.00,,,0.00,Wunderground v.1.15,2013-08-26 04:14:00,
2013-08-26 00:18:00,64.8,58.8,30.16,WSW,238,3.0,6.0,81,0.00,,,0.00,Wunderground v.1.15,2013-08-26 04:18:00,
2013-08-26 00:20:00,64.8,58.8,30.16,SW,229,3.0,4.0,81,0.00,,,0.00,Wunderground v.1.15,2013-08-26 04:20:00,
2013-08-26 00:22:00,64.8,59.2,30.15,SW,229,3.0,4.0,82,0.00,,,0.00,Wunderground v.1.15,2013-08-26 04:22:00,
2013-08-26 00:26:00,64.8,59.2,30.15,SW,221,3.0,6.0,82,0.00,,,0.00,Wunderground v.1.15,2013-08-26 04:26:00,
2013-08-26 00:28:00,64.8,59.2,30.15,SW,229,3.0,6.0,82,0.00,,,0.00,Wunderground v.1.15,2013-08-26 04:28:00,
2013-08-26 00:30:00,64.9,59.3,30.15,SW,218,3.0,3.0,82,0.00,,,0.00,Wunderground v.1.15,2013-08-26 04:30:00,
2013-08-26 00:32:00,64.9,59.3,30.15,SW,227,3.0,3.0,82,0.00,,,0.00,Wunderground v.1.15,2013-08-26 04:32:00,
2013-08-26 00:36:00,64.9,59.3,30.15,SW,216,3.0,3.0,82,0.00,,,0.00,Wunderground v.1.15,2013-08-26 04:36:00,
2013-08-26 00:42:00,65.0,59.7,30.15,SW,231,3.0,3.0,83,0.00,,,0.00,Wunderground v.1.15,2013-08-26 04:42:00,
2013-08-26 00:44:00,65.0,59.7,30.15,SW,231,3.0,3.0,83,0.00,,,0.00,Wunderground v.1.15,2013-08-26 04:44:00,
2013-08-26 00:46:00,65.0,59.7,30.15,SW,228,3.0,4.0,83,0.00,,,0.00,Wunderground v.1.15,2013-08-26 04:46:00,
2013-08-26 00:48:00,65.0,59.7,30.15,SW,217,3.0,4.0,83,0.00,,,0.00,Wunderground v.1.15,2013-08-26 04:48:00,
2013-08-26 00:50:00,65.1,59.8,30.15,SW,220,3.0,4.0,83,0.00,,,0.00,Wunderground v.1.15,2013-08-26 04:50:00,
2013-08-26 00:54:00,65.0,59.7,30.15,SW,222,3.0,4.0,83,0.00,,,0.00,Wunderground v.1.15,2013-08-26 04:54:00,
2013-08-26 00:56:00,64.9,59.9,30.15,SW,222,3.0,4.0,84,0.00,,,0.00,Wunderground v.1.15,2013-08-26 04:56:00,
2013-08-26 00:58:00,64.9,59.9,30.15,SW,222,2.0,4.0,84,0.00,,,0.00,Wunderground v.1.15,2013-08-26 04:58:00,
2013-08-26 01:00:00,64.9,60.3,30.15,West,262,2.0,2.0,85,0.00,,,0.00,Wunderground v.1.15,2013-08-26 05:00:00,
2013-08-26 01:02:00,64.8,60.2,30.15,West,262,2.0,2.0,85,0.00,,,0.00,Wunderground v.1.15,2013-08-26 05:02:00,
2013-08-26 01:04:00,64.8,60.2,30.15,SW,218,2.0,2.0,85,0.00,,,0.00,Wunderground v.1.15,2013-08-26 05:04:00,
2013-08-26 01:08:00,64.7,60.4,30.15,SW,216,2.0,5.0,86,0.00,,,0.00,Wunderground v.1.15,2013-08-26 05:08:00,
2013-08-26 01:10:00,64.6,60.3,30.15,SW,232,2.0,5.0,86,0.00,,,0.00,Wunderground v.1.15,2013-08-26 05:10:00,
2013-08-26 01:12:00,64.6,60.3,30.15,SW,232,2.0,5.0,86,0.00,,,0.00,Wunderground v.1.15,2013-08-26 05:12:00,
2013-08-26 01:14:00,64.6,60.6,30.15,SSW,213,3.0,5.0,87,0.00,,,0.00,Wunderground v.1.15,2013-08-26 05:14:00,
2013-08-26 01:18:00,64.6,60.6,30.15,SSW,213,2.0,5.0,87,0.00,,,0.00,Wunderground v.1.15,2013-08-26 05:18:00,
2013-08-26 01:20:00,64.6,60.6,30.15,SSW,213,2.0,2.0,87,0.00,,,0.00,Wunderground v.1.15,2013-08-26 05:20:00,
2013-08-26 01:22:00,64.6,60.6,30.15,SW,234,2.0,4.0,87,0.00,,,0.00,Wunderground v.1.15,2013-08-26 05:22:00,
2013-08-26 01:26:00,64.7,61.1,30.15,SW,229,2.0,4.0,88,0.00,,,0.00,Wunderground v.1.15,2013-08-26 05:26:00,
2013-08-26 01:28:00,64.8,61.2,30.15,SW,230,2.0,4.0,88,0.00,,,0.00,Wunderground v.1.15,2013-08-26 05:28:00,
2013-08-26 01:30:00,65.0,61.4,30.15,SW,224,3.0,4.0,88,0.00,,,0.00,Wunderground v.1.15,2013-08-26 05:30:00,
2013-08-26 01:32:00,65.1,61.5,30.15,WSW,237,3.0,4.0,88,0.00,,,0.00,Wunderground v.1.15,2013-08-26 05:32:00,
2013-08-26 01:34:00,65.2,61.6,30.15,WSW,248,3.0,4.0,88,0.00,,,0.00,Wunderground v.1.15,2013-08-26 05:34:00,
2013-08-26 01:36:00,65.3,61.7,30.14,SW,223,3.0,4.0,88,0.00,,,0.00,Wunderground v.1.15,2013-08-26 05:36:00,
2013-08-26 01:38:00,65.3,61.7,30.14,SW,223,3.0,6.0,88,0.00,,,0.00,Wunderground v.1.15,2013-08-26 05:38:00,
2013-08-26 01:40:00,65.4,61.8,30.14,West,261,3.0,5.0,88,0.00,,,0.00,Wunderground v.1.15,2013-08-26 05:40:00,
2013-08-26 01:42:00,65.5,61.9,30.14,WSW,239,3.0,5.0,88,0.00,,,0.00,Wunderground v.1.15,2013-08-26 05:42:00,
2013-08-26 01:44:00,65.5,61.9,30.14,WSW,239,3.0,5.0,88,0.00,,,0.00,Wunderground v.1.15,2013-08-26 05:44:00,
2013-08-26 01:50:00,65.8,62.1,30.14,SW,226,3.0,3.0,88,0.00,,,0.00,Wunderground v.1.15,2013-08-26 05:50:00,
2013-08-26 01:54:00,66.1,62.4,30.14,SW,222,4.0,4.0,88,0.00,,,0.00,Wunderground v.1.15,2013-08-26 05:54:00,
2013-08-26 01:56:00,66.1,62.4,30.14,SW,233,4.0,5.0,88,0.00,,,0.00,Wunderground v.1.15,2013-08-26 05:56:00,
2013-08-26 02:00:00,66.2,62.2,30.14,WSW,254,4.0,4.0,87,0.00,,,0.00,Wunderground v.1.15,2013-08-26 06:00:00,
2013-08-26 02:02:00,66.3,62.3,30.14,SW,225,4.0,6.0,87,0.00,,,0.00,Wunderground v.1.15,2013-08-26 06:02:00,
2013-08-26 02:04:00,66.4,62.4,30.14,WSW,252,4.0,6.0,87,0.00,,,0.00,Wunderground v.1.15,2013-08-26 06:04:00,
2013-08-26 02:08:00,66.5,62.5,30.14,WSW,248,3.0,6.0,87,0.00,,,0.00,Wunderground v.1.15,2013-08-26 06:08:00,
2013-08-26 02:10:00,66.5,62.5,30.14,SW,214,4.0,5.0,87,0.00,,,0.00,Wunderground v.1.15,2013-08-26 06:10:00,
2013-08-26 02:12:00,66.5,62.5,30.14,SW,228,4.0,5.0,87,0.00,,,0.00,Wunderground v.1.15,2013-08-26 06:12:00,
2013-08-26 02:16:00,66.6,62.6,30.14,WSW,240,5.0,10.0,87,0.00,,,0.00,Wunderground v.1.15,2013-08-26 06:16:00,
2013-08-26 02:20:00,66.6,62.6,30.14,WSW,239,4.0,4.0,87,0.00,,,0.00,Wunderground v.1.15,2013-08-26 06:20:00,
2013-08-26 02:22:00,66.6,62.6,30.13,SW,225,4.0,4.0,87,0.00,,,0.00,Wunderground v.1.15,2013-08-26 06:22:00,
2013-08-26 02:26:00,66.6,62.6,30.13,SW,228,3.0,4.0,87,0.00,,,0.00,Wunderground v.1.15,2013-08-26 06:26:00,
2013-08-26 02:30:00,66.5,62.5,30.13,SSW,202,3.0,4.0,87,0.00,,,0.00,Wunderground v.1.15,2013-08-26 06:30:00,
2013-08-26 02:34:00,66.4,62.4,30.13,SW,225,3.0,4.0,87,0.00,,,0.00,Wunderground v.1.15,2013-08-26 06:34:00,
2013-08-26 02:36:00,66.4,62.4,30.13,SW,216,3.0,4.0,87,0.00,,,0.00,Wunderground v.1.15,2013-08-26 06:36:00,
2013-08-26 02:38:00,66.4,62.1,30.13,West,281,3.0,6.0,86,0.00,,,0.00,Wunderground v.1.15,2013-08-26 06:38:00,
2013-08-26 02:44:00,66.5,62.2,30.13,SSW,213,4.0,4.0,86,0.00,,,0.00,Wunderground v.1.15,2013-08-26 06:44:00,
2013-08-26 02:46:00,66.6,62.3,30.13,West,263,4.0,4.0,86,0.00,,,0.00,Wunderground v.1.15,2013-08-26 06:46:00,
2013-08-26 02:48:00,66.6,61.9,30.13,WSW,238,3.0,5.0,85,0.00,,,0.00,Wunderground v.1.15,2013-08-26 06:48:00,
2013-08-26 02:54:00,66.7,62.0,30.13,WSW,238,3.0,4.0,85,0.00,,,0.00,Wunderground v.1.15,2013-08-26 06:54:00,
2013-08-26 02:58:00,66.7,61.7,30.13,WSW,255,4.0,6.0,84,0.00,,,0.00,Wunderground v.1.15,2013-08-26 06:58:00,
2013-08-26 03:00:00,66.8,62.1,30.13,WSW,250,4.0,4.0,85,0.00,,,0.00,Wunderground v.1.15,2013-08-26 07:00:00,
2013-08-26 03:02:00,66.8,62.1,30.13,SW,234,4.0,4.0,85,0.00,,,0.00,Wunderground v.1.15,2013-08-26 07:02:00,
2013-08-26 03:04:00,66.8,62.1,30.13,WSW,246,3.0,4.0,85,0.00,,,0.00,Wunderground v.1.15,2013-08-26 07:04:00,
2013-08-26 03:06:00,66.9,62.2,30.12,WSW,246,3.0,4.0,85,0.00,,,0.00,Wunderground v.1.15,2013-08-26 07:06:00,
2013-08-26 03:08:00,66.8,62.1,30.12,SW,227,3.0,4.0,85,0.00,,,0.00,Wunderground v.1.15,2013-08-26 07:08:00,
2013-08-26 03:10:00,66.9,62.2,30.12,SSW,207,3.0,6.0,85,0.00,,,0.00,Wunderground v.1.15,2013-08-26 07:10:00,
2013-08-26 03:12:00,66.9,62.2,30.12,SW,231,3.0,6.0,85,0.00,,,0.00,Wunderground v.1.15,2013-08-26 07:12:00,
2013-08-26 03:14:00,66.9,62.2,30.12,WSW,240,3.0,6.0,85,0.00,,,0.00,Wunderground v.1.15,2013-08-26 07:14:00,
2013-08-26 03:16:00,66.9,62.2,30.12,SW,215,4.0,6.0,85,0.00,,,0.00,Wunderground v.1.15,2013-08-26 07:16:00,
2013-08-26 03:18:00,66.9,62.2,30.12,SSW,213,4.0,6.0,85,0.00,,,0.00,Wunderground v.1.15,2013-08-26 07:18:00,
2013-08-26 03:20:00,66.9,62.2,30.12,WSW,252,3.0,8.0,85,0.00,,,0.00,Wunderground v.1.15,2013-08-26 07:20:00,
2013-08-26 03:22:00,66.9,62.2,30.12,WSW,252,3.0,8.0,85,0.00,,,0.00,Wunderground v.1.15,2013-08-26 07:22:00,
2013-08-26 03:26:00,66.9,62.2,30.12,SW,218,3.0,8.0,85,0.00,,,0.00,Wunderground v.1.15,2013-08-26 07:26:00,
2013-08-26 03:28:00,67.0,62.7,30.12,WSW,238,4.0,8.0,86,0.00,,,0.00,Wunderground v.1.15,2013-08-26 07:28:00,
2013-08-26 03:30:00,67.0,62.7,30.12,SW,219,4.0,4.0,86,0.00,,,0.00,Wunderground v.1.15,2013-08-26 07:30:00,
2013-08-26 03:32:00,67.0,62.7,30.12,WSW,252,4.0,4.0,86,0.00,,,0.00,Wunderground v.1.15,2013-08-26 07:32:00,
2013-08-26 03:34:00,67.1,62.8,30.12,South,184,4.0,6.0,86,0.00,,,0.00,Wunderground v.1.15,2013-08-26 07:34:00,
2013-08-26 03:36:00,67.0,62.7,30.11,SW,223,3.0,6.0,86,0.00,,,0.00,Wunderground v.1.15,2013-08-26 07:36:00,
2013-08-26 03:40:00,67.0,62.7,30.11,SW,232,4.0,4.0,86,0.00,,,0.00,Wunderground v.1.15,2013-08-26 07:40:00,
2013-08-26 03:42:00,67.0,62.7,30.11,SSW,212,4.0,4.0,86,0.00,,,0.00,Wunderground v.1.15,2013-08-26 07:42:00,
2013-08-26 03:48:00,67.1,62.8,30.11,SW,224,4.0,6.0,86,0.00,,,0.00,Wunderground v.1.15,2013-08-26 07:48:00,
2013-08-26 03:50:00,67.1,62.8,30.11,West,269,4.0,5.0,86,0.00,,,0.00,Wunderground v.1.15,2013-08-26 07:50:00,
2013-08-26 03:56:00,67.1,62.8,30.09,SSW,194,4.0,6.0,86,0.00,,,0.00,Wunderground v.1.15,2013-08-26 07:56:00,
2013-08-26 03:58:00,67.1,62.8,30.09,South,190,4.0,6.0,86,0.00,,,0.00,Wunderground v.1.15,2013-08-26 07:58:00,
2013-08-26 04:00:00,67.1,62.8,30.09,SW,221,4.0,4.0,86,0.00,,,0.00,Wunderground v.1.15,2013-08-26 08:00:00,
2013-08-26 04:02:00,67.1,63.1,30.09,West,261,3.0,4.0,87,0.00,,,0.00,Wunderground v.1.15,2013-08-26 08:02:00,
2013-08-26 04:08:00,67.0,63.0,30.10,WSW,241,3.0,5.0,87,0.00,,,0.00,Wunderground v.1.15,2013-08-26 08:08:00,
2013-08-26 04:10:00,67.0,63.0,30.10,SW,229,3.0,4.0,87,0.00,,,0.00,Wunderground v.1.15,2013-08-26 08:10:00,
2013-08-26 04:12:00,67.0,63.0,30.10,SW,215,3.0,4.0,87,0.00,,,0.00,Wunderground v.1.15,2013-08-26 08:12:00,
2013-08-26 04:16:00,66.9,62.9,30.10,SSW,210,3.0,7.0,87,0.00,,,0.00,Wunderground v.1.15,2013-08-26 08:16:00,
2013-08-26 04:18:00,66.9,62.9,30.10,WSW,242,3.0,7.0,87,0.00,,,0.00,Wunderground v.1.15,2013-08-26 08:18:00,
2013-08-26 04:24:00,67.0,63.0,30.10,SSW,211,4.0,4.0,87,0.00,,,0.00,Wunderground v.1.15,2013-08-26 08:24:00,
2013-08-26 04:26:00,67.0,63.0,30.10,SW,228,4.0,10.0,87,0.00,,,0.00,Wunderground v.1.15,2013-08-26 08:26:00,
2013-08-26 04:30:00,67.0,63.0,30.10,SSW,209,4.0,4.0,87,0.00,,,0.00,Wunderground v.1.15,2013-08-26 08:30:00,
2013-08-26 04:32:00,67.0,63.0,30.10,SW,216,4.0,6.0,87,0.00,,,0.00,Wunderground v.1.15,2013-08-26 08:32:00,
2013-08-26 04:36:00,67.1,63.1,30.09,WSW,244,4.0,6.0,87,0.00,,,0.00,Wunderground v.1.15,2013-08-26 08:36:00,
2013-08-26 04:38:00,67.0,63.0,30.09,SW,230,3.0,6.0,87,0.00,,,0.00,Wunderground v.1.15,2013-08-26 08:38:00,
2013-08-26 04:42:00,67.0,63.0,30.09,SW,227,3.0,5.0,87,0.00,,,0.00,Wunderground v.1.15,2013-08-26 08:42:00,
2013-08-26 04:44:00,67.0,63.0,30.09,WSW,240,3.0,6.0,87,0.00,,,0.00,Wunderground v.1.15,2013-08-26 08:44:00,
2013-08-26 04:50:00,67.0,63.0,30.09,SW,226,4.0,4.0,87,0.00,,,0.00,Wunderground v.1.15,2013-08-26 08:50:00,
2013-08-26 04:52:00,66.9,62.9,30.09,SW,232,4.0,4.0,87,0.00,,,0.00,Wunderground v.1.15,2013-08-26 08:52:00,
2013-08-26 04:56:00,66.8,63.1,30.09,SW,230,3.0,4.0,88,0.00,,,0.00,Wunderground v.1.15,2013-08-26 08:56:00,
2013-08-26 05:02:00,66.7,63.0,30.09,West,259,3.0,3.0,88,0.00,,,0.00,Wunderground v.1.15,2013-08-26 09:02:00,
2013-08-26 05:06:00,66.8,63.1,30.09,West,269,4.0,4.0,88,0.00,,,0.00,Wunderground v.1.15,2013-08-26 09:06:00,
2013-08-26 05:12:00,66.7,63.0,30.09,SSW,205,3.0,4.0,88,0.00,,,0.00,Wunderground v.1.15,2013-08-26 09:12:00,
2013-08-26 05:14:00,66.7,63.0,30.09,SSW,202,3.0,4.0,88,0.00,,,0.00,Wunderground v.1.15,2013-08-26 09:14:00,
2013-08-26 05:20:00,66.7,63.0,30.09,WSW,238,3.0,3.0,88,0.00,,,0.00,Wunderground v.1.15,2013-08-26 09:20:00,
2013-08-26 05:24:00,66.6,62.9,30.09,WSW,243,3.0,3.0,88,0.00,,,0.00,Wunderground v.1.15,2013-08-26 09:24:00,
2013-08-26 05:26:00,66.6,62.9,30.09,SW,222,3.0,6.0,88,0.00,,,0.00,Wunderground v.1.15,2013-08-26 09:26:00,
2013-08-26 05:30:00,66.6,62.9,30.09,SW,223,3.0,6.0,88,0.00,,,0.00,Wunderground v.1.15,2013-08-26 09:30:00,
2013-08-26 05:32:00,66.7,63.0,30.09,SSW,212,4.0,6.0,88,0.00,,,0.00,Wunderground v.1.15,2013-08-26 09:32:00,
2013-08-26 05:36:00,66.7,63.0,30.09,SW,225,4.0,6.0,88,0.00,,,0.00,Wunderground v.1.15,2013-08-26 09:36:00,
2013-08-26 05:38:00,66.7,63.0,30.09,West,259,4.0,6.0,88,0.00,,,0.00,Wunderground v.1.15,2013-08-26 09:38:00,
2013-08-26 05:40:00,66.7,63.0,30.09,SW,234,4.0,4.0,88,0.00,,,0.00,Wunderground v.1.15,2013-08-26 09:40:00,
2013-08-26 05:42:00,66.7,63.0,30.09,WSW,254,3.0,6.0,88,0.00,,,0.00,Wunderground v.1.15,2013-08-26 09:42:00,
2013-08-26 05:44:00,66.6,62.9,30.09,SW,236,3.0,6.0,88,0.00,,,0.00,Wunderground v.1.15,2013-08-26 09:44:00,
2013-08-26 05:48:00,66.7,63.0,30.09,West,259,4.0,8.0,88,0.00,,,0.00,Wunderground v.1.15,2013-08-26 09:48:00,
2013-08-26 05:52:00,66.7,63.0,30.09,WSW,251,4.0,4.0,88,0.00,,,0.00,Wunderground v.1.15,2013-08-26 09:52:00,
2013-08-26 05:54:00,66.7,63.0,30.09,SW,234,4.0,4.0,88,0.00,,,0.00,Wunderground v.1.15,2013-08-26 09:54:00,
2013-08-26 05:56:00,66.7,63.0,30.09,SSW,205,4.0,4.0,88,0.00,,,0.00,Wunderground v.1.15,2013-08-26 09:56:00,
2013-08-26 05:58:00,66.7,63.0,30.09,SW,229,4.0,4.0,88,0.00,,,0.00,Wunderground v.1.15,2013-08-26 09:58:00,
2013-08-26 06:00:00,66.7,63.0,30.09,WSW,255,3.0,7.0,88,0.00,,,0.00,Wunderground v.1.15,2013-08-26 10:00:00,
2013-08-26 06:02:00,66.6,62.9,30.09,SW,223,3.0,7.0,88,0.00,,,0.00,Wunderground v.1.15,2013-08-26 10:02:00,
2013-08-26 06:06:00,66.7,63.0,30.09,SW,233,4.0,7.0,88,0.00,,,0.00,Wunderground v.1.15,2013-08-26 10:06:00,
2013-08-26 06:10:00,66.7,63.0,30.09,WSW,239,4.0,4.0,88,0.00,,,0.00,Wunderground v.1.15,2013-08-26 10:10:00,
2013-08-26 06:12:00,66.7,63.0,30.09,SSW,202,4.0,4.0,88,0.00,,,0.00,Wunderground v.1.15,2013-08-26 10:12:00,
2013-08-26 06:14:00,66.8,63.1,30.09,SW,235,4.0,5.0,88,0.00,,,0.00,Wunderground v.1.15,2013-08-26 10:14:00,
2013-08-26 06:16:00,66.8,63.1,30.09,SW,227,4.0,5.0,88,0.00,,,0.00,Wunderground v.1.15,2013-08-26 10:16:00,
2013-08-26 06:20:00,66.7,63.0,30.09,SSW,211,3.0,3.0,88,0.00,,,0.00,Wunderground v.1.15,2013-08-26 10:20:00,
2013-08-26 06:22:00,66.7,63.0,30.08,WSW,251,3.0,5.0,88,0.00,,,0.00,Wunderground v.1.15,2013-08-26 10:22:00,
2013-08-26 06:26:00,66.7,63.0,30.08,SW,215,3.0,5.0,88,0.00,,,0.00,Wunderground v.1.15,2013-08-26 10:26:00,
2013-08-26 06:28:00,66.8,62.8,30.08,SW,222,3.0,5.0,87,0.00,,,0.00,Wunderground v.1.15,2013-08-26 10:28:00,
2013-08-26 06:30:00,66.8,62.8,30.08,WSW,242,4.0,6.0,87,0.00,,,0.00,Wunderground v.1.15,2013-08-26 10:30:00,
2013-08-26 06:34:00,66.8,62.8,30.08,WSW,246,4.0,6.0,87,0.00,,,0.00,Wunderground v.1.15,2013-08-26 10:34:00,
2013-08-26 06:36:00,66.8,62.8,30.07,WSW,248,4.0,6.0,87,0.00,,,0.00,Wunderground v.1.15,2013-08-26 10:36:00,
2013-08-26 06:40:00,66.9,62.9,30.07,SW,225,4.0,7.0,87,0.00,,,0.00,Wunderground v.1.15,2013-08-26 10:40:00,
2013-08-26 06:42:00,67.0,63.0,30.07,SW,224,4.0,7.0,87,0.00,,,0.00,Wunderground v.1.15,2013-08-26 10:42:00,
2013-08-26 06:44:00,67.0,63.0,30.07,SW,233,4.0,7.0,87,0.00,,,0.00,Wunderground v.1.15,2013-08-26 10:44:00,
2013-08-26 06:46:00,67.0,63.0,30.07,SSW,210,4.0,7.0,87,0.00,,,0.00,Wunderground v.1.15,2013-08-26 10:46:00,
2013-08-26 06:48:00,67.1,63.1,30.07,South,180,4.0,7.0,87,0.00,,,0.00,Wunderground v.1.15,2013-08-26 10:48:00,
2013-08-26 06:50:00,67.1,63.1,30.08,SW,224,4.0,6.0,87,0.00,,,0.00,Wunderground v.1.15,2013-08-26 10:50:00,
2013-08-26 06:52:00,67.1,63.1,30.08,West,267,4.0,6.0,87,0.00,,,0.00,Wunderground v.1.15,2013-08-26 10:52:00,
2013-08-26 06:54:00,67.1,62.8,30.08,SW,218,4.0,6.0,86,0.00,,,0.00,Wunderground v.1.15,2013-08-26 10:54:00,
2013-08-26 06:56:00,67.2,62.9,30.08,SSW,195,3.0,6.0,86,0.00,,,0.00,Wunderground v.1.15,2013-08-26 10:56:00,
2013-08-26 07:02:00,67.3,63.0,30.08,West,267,4.0,4.0,86,0.00,,,0.00,Wunderground v.1.15,2013-08-26 11:02:00,
2013-08-26 07:04:00,67.3,63.0,30.08,WSW,250,3.0,9.0,86,0.00,,,0.00,Wunderground v.1.15,2013-08-26 11:04:00,
2013-08-26 07:08:00,67.5,62.8,30.08,SW,235,4.0,13.0,85,0.00,,,0.00,Wunderground v.1.15,2013-08-26 11:08:00,
2013-08-26 07:10:00,67.6,62.9,30.08,WSW,247,5.0,5.0,85,0.00,,,0.00,Wunderground v.1.15,2013-08-26 11:10:00,
2013-08-26 07:12:00,67.6,62.9,30.08,SW,220,5.0,5.0,85,0.00,,,0.00,Wunderground v.1.15,2013-08-26 11:12:00,
2013-08-26 07:14:00,67.7,63.0,30.08,SSW,207,5.0,5.0,85,0.00,,,0.00,Wunderground v.1.15,2013-08-26 11:14:00,
2013-08-26 07:16:00,67.7,63.0,30.08,SW,233,5.0,5.0,85,0.00,,,0.00,Wunderground v.1.15,2013-08-26 11:16:00,
2013-08-26 07:18:00,67.8,63.1,30.08,SSW,209,5.0,5.0,85,0.00,,,0.00,Wunderground v.1.15,2013-08-26 11:18:00,
2013-08-26 07:20:00,67.8,63.1,30.08,SW,228,5.0,5.0,85,0.00,,,0.00,Wunderground v.1.15,2013-08-26 11:20:00,
2013-08-26 07:22:00,67.8,63.1,30.07,SSW,203,5.0,5.0,85,0.00,,,0.00,Wunderground v.1.15,2013-08-26 11:22:00,
2013-08-26 07:24:00,67.8,63.1,30.07,SW,221,5.0,5.0,85,0.00,,,0.00,Wunderground v.1.15,2013-08-26 11:24:00,
2013-08-26 07:26:00,67.9,63.2,30.07,SSW,192,5.0,5.0,85,0.00,,,0.00,Wunderground v.1.15,2013-08-26 11:26:00,
2013-08-26 07:30:00,68.0,63.3,30.07,SW,226,5.0,5.0,85,0.00,,,0.00,Wunderground v.1.15,2013-08-26 11:30:00,
2013-08-26 07:32:00,68.0,63.3,30.07,SW,230,4.0,5.0,85,0.00,,,0.00,Wunderground v.1.15,2013-08-26 11:32:00,
2013-08-26 07:36:00,68.2,63.5,30.07,SW,228,5.0,9.0,85,0.00,,,0.00,Wunderground v.1.15,2013-08-26 11:36:00,
2013-08-26 07:38:00,68.2,63.2,30.07,West,268,5.0,9.0,84,0.00,,,0.00,Wunderground v.1.15,2013-08-26 11:38:00,
2013-08-26 07:40:00,68.3,63.3,30.07,SW,216,5.0,5.0,84,0.00,,,0.00,Wunderground v.1.15,2013-08-26 11:40:00,
2013-08-26 07:44:00,68.4,63.4,30.07,SW,234,5.0,9.0,84,0.00,,,0.00,Wunderground v.1.15,2013-08-26 11:44:00,
2013-08-26 07:46:00,68.5,63.5,30.07,SW,229,5.0,10.0,84,0.00,,,0.00,Wunderground v.1.15,2013-08-26 11:46:00,
2013-08-26 07:48:00,68.6,63.6,30.07,SW,223,5.0,13.0,84,0.00,,,0.00,Wunderground v.1.15,2013-08-26 11:48:00,
2013-08-26 07:50:00,68.6,63.6,30.07,WSW,256,6.0,11.0,84,0.00,,,0.00,Wunderground v.1.15,2013-08-26 11:50:00,
2013-08-26 07:52:00,68.6,63.6,30.06,SW,236,6.0,11.0,84,0.00,,,0.00,Wunderground v.1.15,2013-08-26 11:52:00,
2013-08-26 07:56:00,68.7,63.7,30.06,SW,227,6.0,11.0,84,0.00,,,0.00,Wunderground v.1.15,2013-08-26 11:56:00,
2013-08-26 07:58:00,68.8,63.8,30.06,SW,217,6.0,11.0,84,0.00,,,0.00,Wunderground v.1.15,2013-08-26 11:58:00,
2013-08-26 08:02:00,68.9,63.9,30.06,SW,229,5.0,6.0,84,0.00,,,0.00,Wunderground v.1.15,2013-08-26 12:02:00,
2013-08-26 08:06:00,69.0,63.6,30.05,SW,226,5.0,6.0,83,0.00,,,0.00,Wunderground v.1.15,2013-08-26 12:06:00,
2013-08-26 08:08:00,69.1,63.7,30.05,SW,219,5.0,6.0,83,0.00,,,0.00,Wunderground v.1.15,2013-08-26 12:08:00,
2013-08-26 08:10:00,69.2,63.8,30.05,SSW,206,5.0,5.0,83,0.00,,,0.00,Wunderground v.1.15,2013-08-26 12:10:00,
2013-08-26 08:12:00,69.2,63.8,30.05,SSW,209,5.0,14.0,83,0.00,,,0.00,Wunderground v.1.15,2013-08-26 12:12:00,
2013-08-26 08:14:00,69.3,63.6,30.05,SSW,203,5.0,14.0,82,0.00,,,0.00,Wunderground v.1.15,2013-08-26 12:14:00,
2013-08-26 08:16:00,69.4,63.7,30.05,SSW,193,5.0,14.0,82,0.00,,,0.00,Wunderground v.1.15,2013-08-26 12:16:00,
2013-08-26 08:18:00,69.5,63.8,30.05,WSW,248,5.0,14.0,82,0.00,,,0.00,Wunderground v.1.15,2013-08-26 12:18:00,
2013-08-26 08:20:00,69.5,63.8,30.05,SW,231,5.0,5.0,82,0.00,,,0.00,Wunderground v.1.15,2013-08-26 12:20:00,
2013-08-26 08:22:00,69.6,63.9,30.06,South,184,5.0,5.0,82,0.00,,,0.00,Wunderground v.1.15,2013-08-26 12:22:00,
2013-08-26 08:24:00,69.7,64.0,30.06,SW,231,5.0,5.0,82,0.00,,,0.00,Wunderground v.1.15,2013-08-26 12:24:00,
2013-08-26 08:26:00,69.7,64.0,30.06,South,190,5.0,5.0,82,0.00,,,0.00,Wunderground v.1.15,2013-08-26 12:26:00,
2013-08-26 08:28:00,69.7,64.0,30.06,SSW,202,5.0,6.0,82,0.00,,,0.00,Wunderground v.1.15,2013-08-26 12:28:00,
2013-08-26 08:30:00,69.5,63.8,30.06,South,184,5.0,7.0,82,0.00,,,0.00,Wunderground v.1.15,2013-08-26 12:30:00,
2013-08-26 08:32:00,69.4,63.7,30.06,SW,222,6.0,7.0,82,0.00,,,0.00,Wunderground v.1.15,2013-08-26 12:32:00,
2013-08-26 08:36:00,69.3,63.9,30.06,South,191,7.0,7.0,83,0.00,,,0.00,Wunderground v.1.15,2013-08-26 12:36:00,
2013-08-26 08:38:00,69.2,63.8,30.06,SW,216,7.0,7.0,83,0.00,,,0.00,Wunderground v.1.15,2013-08-26 12:38:00,
2013-08-26 08:40:00,69.2,63.8,30.06,SW,214,6.0,9.0,83,0.00,,,0.00,Wunderground v.1.15,2013-08-26 12:40:00,
2013-08-26 08:44:00,69.0,63.6,30.06,SW,235,6.0,9.0,83,0.00,,,0.00,Wunderground v.1.15,2013-08-26 12:44:00,
2013-08-26 08:48:00,69.0,64.0,30.06,SSW,213,5.0,9.0,84,0.00,,,0.00,Wunderground v.1.15,2013-08-26 12:48:00,
2013-08-26 08:50:00,68.8,63.8,30.06,South,186,5.0,5.0,84,0.00,,,0.00,Wunderground v.1.15,2013-08-26 12:50:00,
2013-08-26 08:52:00,68.8,63.8,30.06,WSW,257,5.0,6.0,84,0.00,,,0.00,Wunderground v.1.15,2013-08-26 12:52:00,
2013-08-26 08:54:00,68.7,63.7,30.06,SW,218,6.0,6.0,84,0.00,,,0.00,Wunderground v.1.15,2013-08-26 12:54:00,
2013-08-26 08:56:00,68.7,63.7,30.06,SSW,211,6.0,6.0,84,0.00,,,0.00,Wunderground v.1.15,2013-08-26 12:56:00,
2013-08-26 08:58:00,68.8,63.8,30.06,WSW,244,6.0,6.0,84,0.00,,,0.00,Wunderground v.1.15,2013-08-26 12:58:00,
2013-08-26 09:02:00,68.8,63.8,30.06,SSW,212,6.0,6.0,84,0.00,,,0.00,Wunderground v.1.15,2013-08-26 13:02:00,
2013-08-26 09:04:00,68.9,63.9,30.06,SW,236,5.0,7.0,84,0.00,,,0.00,Wunderground v.1.15,2013-08-26 13:04:00,
2013-08-26 09:08:00,68.9,63.9,30.06,SW,229,6.0,7.0,84,0.00,,,0.00,Wunderground v.1.15,2013-08-26 13:08:00,
2013-08-26 09:10:00,69.0,64.0,30.06,WSW,239,7.0,10.0,84,0.00,,,0.00,Wunderground v.1.15,2013-08-26 13:10:00,
2013-08-26 09:14:00,69.0,64.0,30.06,SW,235,7.0,10.0,84,0.00,,,0.00,Wunderground v.1.15,2013-08-26 13:14:00,
2013-08-26 09:16:00,69.0,64.0,30.06,SSW,211,7.0,10.0,84,0.00,,,0.00,Wunderground v.1.15,2013-08-26 13:16:00,
2013-08-26 09:22:00,69.1,64.1,30.05,South,171,6.0,10.0,84,0.00,,,0.00,Wunderground v.1.15,2013-08-26 13:22:00,
2013-08-26 09:24:00,69.1,64.1,30.05,WSW,237,6.0,14.0,84,0.00,,,0.00,Wunderground v.1.15,2013-08-26 13:24:00,
2013-08-26 09:26:00,69.1,64.1,30.05,SW,217,6.0,14.0,84,0.00,,,0.00,Wunderground v.1.15,2013-08-26 13:26:00,
2013-08-26 09:28:00,69.2,64.2,30.05,SW,225,7.0,14.0,84,0.00,,,0.00,Wunderground v.1.15,2013-08-26 13:28:00,
2013-08-26 09:32:00,69.3,64.3,30.05,SSW,213,7.0,12.0,84,0.00,,,0.00,Wunderground v.1.15,2013-08-26 13:32:00,
2013-08-26 09:34:00,69.4,64.4,30.05,WSW,252,7.0,12.0,84,0.00,,,0.00,Wunderground v.1.15,2013-08-26 13:34:00,
2013-08-26 09:36:00,69.4,64.4,30.05,SW,214,7.0,12.0,84,0.00,,,0.00,Wunderground v.1.15,2013-08-26 13:36:00,
2013-08-26 09:38:00,69.6,64.5,30.05,SSW,213,6.0,12.0,84,0.00,,,0.00,Wunderground v.1.15,2013-08-26 13:38:00,
2013-08-26 09:44:00,70.0,64.9,30.05,SW,229,6.0,7.0,84,0.00,,,0.00,Wunderground v.1.15,2013-08-26 13:44:00,
2013-08-26 09:46:00,70.2,64.8,30.05,SW,225,5.0,12.0,83,0.00,,,0.00,Wunderground v.1.15,2013-08-26 13:46:00,
2013-08-26 09:48:00,70.3,64.9,30.05,South,188,6.0,12.0,83,0.00,,,0.00,Wunderground v.1.15,2013-08-26 13:48:00,
2013-08-26 09:52:00,70.5,64.7,30.05,SW,230,6.0,11.0,82,0.00,,,0.00,Wunderground v.1.15,2013-08-26 13:52:00,
2013-08-26 09:56:00,70.6,64.8,30.05,SW,225,7.0,11.0,82,0.00,,,0.00,Wunderground v.1.15,2013-08-26 13:56:00,
2013-08-26 09:58:00,70.6,64.8,30.05,SSW,192,7.0,11.0,82,0.00,,,0.00,Wunderground v.1.15,2013-08-26 13:58:00,
2013-08-26 10:00:00,70.7,64.6,30.05,NW,317,8.0,8.0,81,0.00,,,0.00,Wunderground v.1.15,2013-08-26 14:00:00,
2013-08-26 10:02:00,70.7,64.9,30.05,WSW,250,7.0,8.0,82,0.00,,,0.00,Wunderground v.1.15,2013-08-26 14:02:00,
2013-08-26 10:06:00,70.6,64.5,30.04,SW,216,8.0,13.0,81,0.00,,,0.00,Wunderground v.1.15,2013-08-26 14:06:00,
2013-08-26 10:08:00,70.5,64.4,30.04,WSW,254,8.0,13.0,81,0.00,,,0.00,Wunderground v.1.15,2013-08-26 14:08:00,
2013-08-26 10:10:00,70.5,64.7,30.04,SW,232,7.0,7.0,82,0.00,,,0.00,Wunderground v.1.15,2013-08-26 14:10:00,
2013-08-26 10:12:00,70.6,64.8,30.04,SSW,213,7.0,8.0,82,0.00,,,0.00,Wunderground v.1.15,2013-08-26 14:12:00,
2013-08-26 10:14:00,70.8,65.0,30.04,WSW,240,6.0,11.0,82,0.00,,,0.00,Wunderground v.1.15,2013-08-26 14:14:00,
2013-08-26 10:16:00,70.8,64.7,30.04,West,259,6.0,14.0,81,0.00,,,0.00,Wunderground v.1.15,2013-08-26 14:16:00,
2013-08-26 10:18:00,70.8,64.7,30.04,West,259,5.0,14.0,81,0.00,,,0.00,Wunderground v.1.15,2013-08-26 14:18:00,
2013-08-26 10:20:00,70.8,64.7,30.04,WSW,258,6.0,6.0,81,0.00,,,0.00,Wunderground v.1.15,2013-08-26 14:20:00,
2013-08-26 10:22:00,70.8,64.7,30.04,WSW,253,6.0,18.0,81,0.00,,,0.00,Wunderground v.1.15,2013-08-26 14:22:00,
2013-08-26 10:24:00,70.8,64.7,30.04,SSW,205,7.0,18.0,81,0.00,,,0.00,Wunderground v.1.15,2013-08-26 14:24:00,
2013-08-26 10:28:00,70.9,64.8,30.04,West,266,6.0,18.0,81,0.00,,,0.00,Wunderground v.1.15,2013-08-26 14:28:00,
2013-08-26 10:30:00,71.0,64.5,30.04,WSW,240,7.0,9.0,80,0.00,,,0.00,Wunderground v.1.15,2013-08-26 14:30:00,
2013-08-26 10:34:00,71.2,64.7,30.04,SW,225,7.0,9.0,80,0.00,,,0.00,Wunderground v.1.15,2013-08-26 14:34:00,
2013-08-26 10:36:00,71.2,64.4,30.03,WSW,240,7.0,9.0,79,0.00,,,0.00,Wunderground v.1.15,2013-08-26 14:36:00,
2013-08-26 10:38:00,71.2,64.7,30.03,West,265,7.0,9.0,80,0.00,,,0.00,Wunderground v.1.15,2013-08-26 14:38:00,
2013-08-26 10:40:00,71.3,64.8,30.03,West,261,6.0,6.0,80,0.00,,,0.00,Wunderground v.1.15,2013-08-26 14:40:00,
2013-08-26 10:44:00,71.2,64.7,30.03,WSW,243,7.0,11.0,80,0.00,,,0.00,Wunderground v.1.15,2013-08-26 14:44:00,
2013-08-26 10:46:00,71.1,64.3,30.03,WSW,255,7.0,11.0,79,0.00,,,0.00,Wunderground v.1.15,2013-08-26 14:46:00,
2013-08-26 10:48:00,71.1,64.6,30.03,NW,304,6.0,11.0,80,0.00,,,0.00,Wunderground v.1.15,2013-08-26 14:48:00,
2013-08-26 10:50:00,71.0,64.5,30.03,West,267,6.0,7.0,80,0.00,,,0.00,Wunderground v.1.15,2013-08-26 14:50:00,
2013-08-26 10:52:00,71.0,64.5,30.03,WSW,246,6.0,18.0,80,0.00,,,0.00,Wunderground v.1.15,2013-08-26 14:52:00,
2013-08-26 10:56:00,70.8,64.3,30.03,SW,226,7.0,18.0,80,0.00,,,0.00,Wunderground v.1.15,2013-08-26 14:56:00,
2013-08-26 10:58:00,70.8,64.3,30.03,WSW,238,6.0,18.0,80,0.00,,,0.00,Wunderground v.1.15,2013-08-26 14:58:00,
2013-08-26 11:00:00,70.9,64.8,30.03,SSW,202,6.0,9.0,81,0.00,,,0.00,Wunderground v.1.15,2013-08-26 15:00:00,
2013-08-26 11:02:00,71.0,64.5,30.03,WSW,239,7.0,9.0,80,0.00,,,0.00,Wunderground v.1.15,2013-08-26 15:02:00,
2013-08-26 11:06:00,71.0,64.2,30.02,SSW,200,6.0,10.0,79,0.00,,,0.00,Wunderground v.1.15,2013-08-26 15:06:00,
2013-08-26 11:08:00,70.9,64.4,30.02,WSW,250,7.0,10.0,80,0.00,,,0.00,Wunderground v.1.15,2013-08-26 15:08:00,
2013-08-26 11:12:00,70.9,64.4,30.02,West,261,7.0,9.0,80,0.00,,,0.00,Wunderground v.1.15,2013-08-26 15:12:00,
2013-08-26 11:14:00,70.9,64.4,30.02,West,275,8.0,9.0,80,0.00,,,0.00,Wunderground v.1.15,2013-08-26 15:14:00,
2013-08-26 11:16:00,70.8,64.3,30.02,SW,227,7.0,20.0,80,0.00,,,0.00,Wunderground v.1.15,2013-08-26 15:16:00,
2013-08-26 11:20:00,70.8,64.3,30.02,West,260,8.0,9.0,80,0.00,,,0.00,Wunderground v.1.15,2013-08-26 15:20:00,
2013-08-26 11:22:00,70.9,64.4,30.02,WSW,244,9.0,9.0,80,0.00,,,0.00,Wunderground v.1.15,2013-08-26 15:22:00,
2013-08-26 11:24:00,71.0,64.5,30.02,West,265,8.0,9.0,80,0.00,,,0.00,Wunderground v.1.15,2013-08-26 15:24:00,
2013-08-26 11:30:00,71.4,64.9,30.02,SW,227,7.0,7.0,80,0.00,,,0.00,Wunderground v.1.15,2013-08-26 15:30:00,
2013-08-26 11:32:00,71.4,64.9,30.02,SSW,194,5.0,9.0,80,0.00,,,0.00,Wunderground v.1.15,2013-08-26 15:32:00,
2013-08-26 11:34:00,71.5,65.0,30.02,SW,235,5.0,9.0,80,0.00,,,0.00,Wunderground v.1.15,2013-08-26 15:34:00,
2013-08-26 11:36:00,71.5,65.0,30.00,West,259,5.0,9.0,80,0.00,,,0.00,Wunderground v.1.15,2013-08-26 15:36:00,
2013-08-26 11:38:00,71.8,65.3,30.00,SW,230,5.0,9.0,80,0.00,,,0.00,Wunderground v.1.15,2013-08-26 15:38:00,
2013-08-26 11:42:00,72.0,64.8,30.00,SSW,209,7.0,10.0,78,0.00,,,0.00,Wunderground v.1.15,2013-08-26 15:42:00,
2013-08-26 11:44:00,72.0,64.4,30.00,SW,215,8.0,10.0,77,0.00,,,0.00,Wunderground v.1.15,2013-08-26 15:44:00,
2013-08-26 11:46:00,72.0,64.8,30.00,SW,225,9.0,10.0,78,0.00,,,0.00,Wunderground v.1.15,2013-08-26 15:46:00,
2013-08-26 11:50:00,72.4,65.2,30.00,SW,230,9.0,14.0,78,0.00,,,0.00,Wunderground v.1.15,2013-08-26 15:50:00,
2013-08-26 11:54:00,73.1,65.5,29.98,WSW,242,9.0,14.0,77,0.00,,,0.00,Wunderground v.1.15,2013-08-26 15:54:00,
2013-08-26 11:56:00,73.3,65.3,29.98,SW,225,9.0,14.0,76,0.00,,,0.00,Wunderground v.1.15,2013-08-26 15:56:00,
2013-08-26 12:00:00,73.5,65.1,29.98,West,275,8.0,10.0,75,0.00,,,0.00,Wunderground v.1.15,2013-08-26 16:00:00,
2013-08-26 12:02:00,73.3,64.5,29.98,SSW,198,8.0,10.0,74,0.00,,,0.00,Wunderground v.1.15,2013-08-26 16:02:00,
2013-08-26 12:04:00,73.2,64.8,29.98,West,265,8.0,10.0,75,0.00,,,0.00,Wunderground v.1.15,2013-08-26 16:04:00,
2013-08-26 12:06:00,73.3,64.9,29.98,South,185,7.0,10.0,75,0.00,,,0.00,Wunderground v.1.15,2013-08-26 16:06:00,
2013-08-26 12:08:00,73.6,65.2,29.98,SSE,159,7.0,10.0,75,0.00,,,0.00,Wunderground v.1.15,2013-08-26 16:08:00,
2013-08-26 12:10:00,73.4,64.6,29.98,WSW,242,7.0,7.0,74,0.00,,,0.00,Wunderground v.1.15,2013-08-26 16:10:00,
2013-08-26 12:14:00,73.0,64.2,29.98,SSW,192,8.0,8.0,74,0.00,,,0.00,Wunderground v.1.15,2013-08-26 16:14:00,
2013-08-26 12:16:00,72.6,63.8,29.98,SW,234,8.0,14.0,74,0.00,,,0.00,Wunderground v.1.15,2013-08-26 16:16:00,
2013-08-26 12:18:00,72.4,64.0,29.98,NW,323,9.0,14.0,75,0.00,,,0.00,Wunderground v.1.15,2013-08-26 16:18:00,
2013-08-26 12:20:00,72.1,63.7,29.98,SW,232,9.0,9.0,75,0.00,,,0.00,Wunderground v.1.15,2013-08-26 16:20:00,
2013-08-26 12:22:00,72.0,64.0,29.98,West,260,9.0,9.0,76,0.00,,,0.00,Wunderground v.1.15,2013-08-26 16:22:00,
2013-08-26 12:24:00,71.9,63.9,29.98,WSW,256,8.0,9.0,76,0.00,,,0.00,Wunderground v.1.15,2013-08-26 16:24:00,
2013-08-26 12:26:00,71.7,64.1,29.98,WSW,257,8.0,12.0,77,0.00,,,0.00,Wunderground v.1.15,2013-08-26 16:26:00,
2013-08-26 12:28:00,71.6,64.0,29.98,WSW,242,7.0,12.0,77,0.00,,,0.00,Wunderground v.1.15,2013-08-26 16:28:00,
2013-08-26 12:30:00,71.4,64.2,29.98,WSW,242,7.0,16.0,78,0.00,,,0.00,Wunderground v.1.15,2013-08-26 16:30:00,
2013-08-26 12:32:00,71.3,64.1,29.98,WSW,242,7.0,16.0,78,0.00,,,0.00,Wunderground v.1.15,2013-08-26 16:32:00,
2013-08-26 12:36:00,71.0,64.2,29.97,South,178,7.0,16.0,79,0.00,,,0.00,Wunderground v.1.15,2013-08-26 16:36:00,
2013-08-26 12:38:00,71.0,64.2,29.97,West,265,8.0,16.0,79,0.00,,,0.00,Wunderground v.1.15,2013-08-26 16:38:00,
2013-08-26 12:42:00,71.2,64.7,29.97,SSW,207,8.0,8.0,80,0.00,,,0.00,Wunderground v.1.15,2013-08-26 16:42:00,
2013-08-26 12:44:00,71.2,64.7,29.97,SW,227,8.0,11.0,80,0.00,,,0.00,Wunderground v.1.15,2013-08-26 16:44:00,
2013-08-26 12:46:00,71.2,64.7,29.97,SW,218,9.0,11.0,80,0.00,,,0.00,Wunderground v.1.15,2013-08-26 16:46:00,
2013-08-26 12:48:00,71.3,64.8,29.97,SW,226,9.0,11.0,80,0.00,,,0.00,Wunderground v.1.15,2013-08-26 16:48:00,
2013-08-26 12:52:00,71.5,65.0,29.97,SW,232,9.0,9.0,80,0.00,,,0.00,Wunderground v.1.15,2013-08-26 16:52:00,
2013-08-26 12:54:00,71.5,65.0,29.97,West,259,9.0,9.0,80,0.00,,,0.00,Wunderground v.1.15,2013-08-26 16:54:00,
2013-08-26 12:56:00,71.5,65.0,29.97,South,191,8.0,9.0,80,0.00,,,0.00,Wunderground v.1.15,2013-08-26 16:56:00,
2013-08-26 13:00:00,71.6,65.1,29.97,SSW,196,8.0,8.0,80,0.00,,,0.00,Wunderground v.1.15,2013-08-26 17:00:00,
2013-08-26 13:02:00,71.6,65.1,29.97,SW,232,9.0,9.0,80,0.00,,,0.00,Wunderground v.1.15,2013-08-26 17:02:00,
2013-08-26 13:04:00,71.7,65.2,29.97,WSW,257,8.0,14.0,80,0.00,,,0.00,Wunderground v.1.15,2013-08-26 17:04:00,
2013-08-26 13:08:00,71.9,65.0,29.97,WSW,242,8.0,14.0,79,0.00,,,0.00,Wunderground v.1.15,2013-08-26 17:08:00,
2013-08-26 13:10:00,72.1,65.6,29.97,WSW,248,8.0,8.0,80,0.00,,,0.00,Wunderground v.1.15,2013-08-26 17:10:00,
2013-08-26 13:14:00,72.6,66.1,29.97,South,184,8.0,8.0,80,0.00,,,0.00,Wunderground v.1.15,2013-08-26 17:14:00,
2013-08-26 13:16:00,73.0,66.5,29.97,South,188,7.0,8.0,80,0.00,,,0.00,Wunderground v.1.15,2013-08-26 17:16:00,
2013-08-26 13:18:00,73.4,66.1,29.97,West,273,8.0,9.0,78,0.00,,,0.00,Wunderground v.1.15,2013-08-26 17:18:00,
2013-08-26 13:20:00,73.7,66.4,29.97,WNW,302,7.0,12.0,78,0.00,,,0.00,Wunderground v.1.15,2013-08-26 17:20:00,
2013-08-26 13:22:00,73.8,66.1,29.96,NW,311,7.0,12.0,77,0.00,,,0.00,Wunderground v.1.15,2013-08-26 17:22:00,
2013-08-26 13:24:00,73.7,66.0,29.96,WSW,240,7.0,12.0,77,0.00,,,0.00,Wunderground v.1.15,2013-08-26 17:24:00,
2013-08-26 13:26:00,73.6,65.6,29.96,SW,216,9.0,12.0,76,0.00,,,0.00,Wunderground v.1.15,2013-08-26 17:26:00,
2013-08-26 13:28:00,73.3,65.7,29.96,WSW,248,9.0,12.0,77,0.00,,,0.00,Wunderground v.1.15,2013-08-26 17:28:00,
2013-08-26 13:30:00,73.3,66.0,29.96,ESE,105,9.0,9.0,78,0.00,,,0.00,Wunderground v.1.15,2013-08-26 17:30:00,
2013-08-26 13:32:00,73.3,66.0,29.96,WSW,241,9.0,9.0,78,0.00,,,0.00,Wunderground v.1.15,2013-08-26 17:32:00,
2013-08-26 13:34:00,73.4,66.1,29.96,WNW,301,9.0,9.0,78,0.00,,,0.00,Wunderground v.1.15,2013-08-26 17:34:00,
2013-08-26 13:36:00,73.4,66.1,29.96,SW,224,8.0,9.0,78,0.00,,,0.00,Wunderground v.1.15,2013-08-26 17:36:00,
2013-08-26 13:40:00,73.1,65.8,29.96,SSW,197,8.0,8.0,78,0.00,,,0.00,Wunderground v.1.15,2013-08-26 17:40:00,
2013-08-26 13:44:00,72.9,65.6,29.96,SE,142,8.0,13.0,78,0.00,,,0.00,Wunderground v.1.15,2013-08-26 17:44:00,
2013-08-26 13:46:00,72.7,65.4,29.96,WSW,252,8.0,13.0,78,0.00,,,0.00,Wunderground v.1.15,2013-08-26 17:46:00,
2013-08-26 13:48:00,72.4,65.2,29.96,SW,223,8.0,13.0,78,0.00,,,0.00,Wunderground v.1.15,2013-08-26 17:48:00,
2013-08-26 13:54:00,71.9,65.0,29.95,SSE,164,10.0,13.0,79,0.00,,,0.00,Wunderground v.1.15,2013-08-26 17:54:00,
2013-08-26 13:56:00,71.8,64.9,29.95,West,268,10.0,13.0,79,0.00,,,0.00,Wunderground v.1.15,2013-08-26 17:56:00,
2013-08-26 13:58:00,71.7,64.8,29.95,West,270,11.0,13.0,79,0.00,,,0.00,Wunderground v.1.15,2013-08-26 17:58:00,
2013-08-26 14:00:00,71.9,65.4,29.95,SW,215,10.0,10.0,80,0.00,,,0.00,Wunderground v.1.15,2013-08-26 18:00:00,
2013-08-26 14:04:00,72.8,66.3,29.95,WSW,256,10.0,13.0,80,0.00,,,0.00,Wunderground v.1.15,2013-08-26 18:04:00,
2013-08-26 14:06:00,72.9,66.0,29.94,SSW,212,9.0,13.0,79,0.00,,,0.00,Wunderground v.1.15,2013-08-26 18:06:00,
2013-08-26 14:12:00,72.5,65.6,29.94,SSW,205,8.0,8.0,79,0.00,,,0.00,Wunderground v.1.15,2013-08-26 18:12:00,
2013-08-26 14:16:00,71.9,65.0,29.94,SW,221,9.0,9.0,79,0.00,,,0.00,Wunderground v.1.15,2013-08-26 18:16:00,
2013-08-26 14:20:00,71.3,64.8,29.94,WSW,252,9.0,9.0,80,0.00,,,0.00,Wunderground v.1.15,2013-08-26 18:20:00,
2013-08-26 14:22:00,71.3,65.2,29.93,SW,225,9.0,9.0,81,0.00,,,0.00,Wunderground v.1.15,2013-08-26 18:22:00,
2013-08-26 14:26:00,71.4,65.3,29.93,WSW,239,9.0,11.0,81,0.00,,,0.00,Wunderground v.1.15,2013-08-26 18:26:00,
2013-08-26 14:28:00,71.5,65.4,29.93,WSW,243,9.0,13.0,81,0.00,,,0.00,Wunderground v.1.15,2013-08-26 18:28:00,
2013-08-26 14:30:00,71.6,65.5,29.93,WNW,289,9.0,13.0,81,0.00,,,0.00,Wunderground v.1.15,2013-08-26 18:30:00,
2013-08-26 14:32:00,71.6,65.1,29.93,WNW,286,10.0,13.0,80,0.00,,,0.00,Wunderground v.1.15,2013-08-26 18:32:00,
2013-08-26 14:36:00,71.7,65.2,29.93,WSW,257,10.0,17.0,80,0.00,,,0.00,Wunderground v.1.15,2013-08-26 18:36:00,
2013-08-26 14:40:00,71.9,65.8,29.93,WSW,245,8.0,8.0,81,0.00,,,0.00,Wunderground v.1.15,2013-08-26 18:40:00,
2013-08-26 14:42:00,71.9,65.4,29.93,SSW,208,8.0,11.0,80,0.00,,,0.00,Wunderground v.1.15,2013-08-26 18:42:00,
2013-08-26 14:44:00,71.8,65.3,29.93,West,274,8.0,11.0,80,0.00,,,0.00,Wunderground v.1.15,2013-08-26 18:44:00,
2013-08-26 14:48:00,71.9,65.8,29.93,SSW,205,8.0,13.0,81,0.00,,,0.00,Wunderground v.1.15,2013-08-26 18:48:00,
2013-08-26 14:50:00,71.9,65.4,29.93,SSW,192,8.0,8.0,80,0.00,,,0.00,Wunderground v.1.15,2013-08-26 18:50:00,
2013-08-26 14:54:00,71.7,64.8,29.93,West,262,8.0,10.0,79,0.00,,,0.00,Wunderground v.1.15,2013-08-26 18:54:00,
2013-08-26 15:00:00,72.0,65.5,29.93,SW,234,8.0,11.0,80,0.00,,,0.00,Wunderground v.1.15,2013-08-26 19:00:00,
2013-08-26 15:04:00,72.2,65.7,29.93,SSW,196,7.0,11.0,80,0.00,,,0.00,Wunderground v.1.15,2013-08-26 19:04:00,
2013-08-26 15:10:00,72.9,66.0,29.92,WNW,284,7.0,7.0,79,0.00,,,0.00,Wunderground v.1.15,2013-08-26 19:10:00,
2013-08-26 15:12:00,73.0,66.1,29.92,West,276,6.0,10.0,79,0.00,,,0.00,Wunderground v.1.15,2013-08-26 19:12:00,
2013-08-26 15:16:00,72.4,65.2,29.92,WSW,250,9.0,10.0,78,0.00,,,0.00,Wunderground v.1.15,2013-08-26 19:16:00,
2013-08-26 15:18:00,72.2,65.7,29.92,SSW,208,9.0,10.0,80,0.00,,,0.00,Wunderground v.1.15,2013-08-26 19:18:00,
2013-08-26 15:22:00,72.1,65.6,29.91,WSW,238,9.0,18.0,80,0.00,,,0.00,Wunderground v.1.15,2013-08-26 19:22:00,
2013-08-26 15:26:00,72.2,66.0,29.91,West,264,6.0,18.0,81,0.00,,,0.00,Wunderground v.1.15,2013-08-26 19:26:00,
2013-08-26 15:30:00,72.0,65.5,29.91,WSW,241,8.0,8.0,80,0.00,,,0.00,Wunderground v.1.15,2013-08-26 19:30:00,
2013-08-26 15:34:00,72.0,65.8,29.91,SW,232,8.0,8.0,81,0.00,,,0.00,Wunderground v.1.15,2013-08-26 19:34:00,
2013-08-26 15:36:00,72.1,66.3,29.90,WSW,252,9.0,9.0,82,0.00,,,0.00,Wunderground v.1.15,2013-08-26 19:36:00,
2013-08-26 15:38:00,72.1,65.6,29.90,SW,233,8.0,15.0,80,0.00,,,0.00,Wunderground v.1.15,2013-08-26 19:38:00,
2013-08-26 15:40:00,72.2,65.7,29.90,SW,231,8.0,13.0,80,0.00,,,0.00,Wunderground v.1.15,2013-08-26 19:40:00,
2013-08-26 15:42:00,72.3,65.8,29.90,SSW,201,9.0,13.0,80,0.00,,,0.00,Wunderground v.1.15,2013-08-26 19:42:00,
2013-08-26 15:44:00,72.4,65.9,29.90,SW,225,9.0,13.0,80,0.00,,,0.00,Wunderground v.1.15,2013-08-26 19:44:00,
2013-08-26 15:46:00,72.5,65.6,29.90,SSW,211,9.0,13.0,79,0.00,,,0.00,Wunderground v.1.15,2013-08-26 19:46:00,
2013-08-26 15:48:00,72.5,66.0,29.90,SW,229,9.0,13.0,80,0.00,,,0.00,Wunderground v.1.15,2013-08-26 19:48:00,
2013-08-26 15:50:00,72.8,66.3,29.90,SW,234,8.0,20.0,80,0.00,,,0.00,Wunderground v.1.15,2013-08-26 19:50:00,
2013-08-26 15:54:00,72.7,65.8,29.90,WSW,255,8.0,20.0,79,0.00,,,0.00,Wunderground v.1.15,2013-08-26 19:54:00,
2013-08-26 15:58:00,72.3,65.4,29.90,SSW,211,8.0,20.0,79,0.00,,,0.00,Wunderground v.1.15,2013-08-26 19:58:00,
2013-08-26 16:00:00,72.1,65.6,29.90,SW,236,9.0,9.0,80,0.00,,,0.00,Wunderground v.1.15,2013-08-26 20:00:00,
2013-08-26 16:04:00,71.9,65.4,29.90,SSW,205,9.0,9.0,80,0.00,,,0.00,Wunderground v.1.15,2013-08-26 20:04:00,
2013-08-26 16:06:00,71.9,65.8,29.90,WSW,249,8.0,9.0,81,0.00,,,0.00,Wunderground v.1.15,2013-08-26 20:06:00,
2013-08-26 16:12:00,72.3,66.1,29.90,SW,217,7.0,7.0,81,0.00,,,0.00,Wunderground v.1.15,2013-08-26 20:12:00,
2013-08-26 16:14:00,72.5,66.3,29.90,SW,219,6.0,7.0,81,0.00,,,0.00,Wunderground v.1.15,2013-08-26 20:14:00,
2013-08-26 16:18:00,72.8,66.3,29.90,SW,219,7.0,7.0,80,0.00,,,0.00,Wunderground v.1.15,2013-08-26 20:18:00,
2013-08-26 16:24:00,72.3,65.8,29.89,WSW,254,7.0,14.0,80,0.00,,,0.00,Wunderground v.1.15,2013-08-26 20:24:00,
2013-08-26 16:26:00,72.1,65.6,29.89,West,275,8.0,14.0,80,0.00,,,0.00,Wunderground v.1.15,2013-08-26 20:26:00,
2013-08-26 16:30:00,72.1,65.9,29.89,WNW,286,8.0,8.0,81,0.00,,,0.00,Wunderground v.1.15,2013-08-26 20:30:00,
2013-08-26 16:32:00,72.2,66.4,29.89,SE,144,7.0,8.0,82,0.00,,,0.00,Wunderground v.1.15,2013-08-26 20:32:00,
2013-08-26 16:34:00,72.3,66.1,29.89,WSW,251,7.0,8.0,81,0.00,,,0.00,Wunderground v.1.15,2013-08-26 20:34:00,
2013-08-26 16:38:00,72.3,66.5,29.89,WSW,252,6.0,8.0,82,0.00,,,0.00,Wunderground v.1.15,2013-08-26 20:38:00,
2013-08-26 16:40:00,72.3,66.1,29.89,WSW,244,5.0,8.0,81,0.00,,,0.00,Wunderground v.1.15,2013-08-26 20:40:00,
2013-08-26 16:42:00,72.2,66.0,29.89,WSW,246,6.0,8.0,81,0.00,,,0.00,Wunderground v.1.15,2013-08-26 20:42:00,
2013-08-26 16:44:00,72.3,66.1,29.89,SSW,213,6.0,8.0,81,0.00,,,0.00,Wunderground v.1.15,2013-08-26 20:44:00,
2013-08-26 16:46:00,72.2,66.0,29.89,SSW,213,5.0,14.0,81,0.00,,,0.00,Wunderground v.1.15,2013-08-26 20:46:00,
2013-08-26 16:48:00,72.1,65.9,29.89,SW,225,6.0,14.0,81,0.00,,,0.00,Wunderground v.1.15,2013-08-26 20:48:00,
2013-08-26 16:50:00,72.1,65.9,29.89,South,190,6.0,6.0,81,0.00,,,0.00,Wunderground v.1.15,2013-08-26 20:50:00,
2013-08-26 16:52:00,72.1,65.9,29.88,SSW,209,7.0,7.0,81,0.00,,,0.00,Wunderground v.1.15,2013-08-26 20:52:00,
2013-08-26 16:54:00,72.0,65.8,29.88,WSW,252,7.0,7.0,81,0.00,,,0.00,Wunderground v.1.15,2013-08-26 20:54:00,
2013-08-26 17:00:00,71.7,65.9,29.88,SW,235,7.0,9.0,82,0.00,,,0.00,Wunderground v.1.15,2013-08-26 21:00:00,
2013-08-26 17:02:00,71.6,65.8,29.88,SSE,161,7.0,9.0,82,0.00,,,0.00,Wunderground v.1.15,2013-08-26 21:02:00,
2013-08-26 17:04:00,71.7,65.9,29.88,WSW,242,6.0,13.0,82,0.00,,,0.00,Wunderground v.1.15,2013-08-26 21:04:00,
2013-08-26 17:06:00,71.6,65.8,29.88,WSW,241,6.0,13.0,82,0.00,,,0.00,Wunderground v.1.15,2013-08-26 21:06:00,
2013-08-26 17:08:00,71.4,65.6,29.88,WSW,252,6.0,13.0,82,0.00,,,0.00,Wunderground v.1.15,2013-08-26 21:08:00,
2013-08-26 17:10:00,71.2,65.4,29.88,SSW,201,7.0,7.0,82,0.00,,,0.00,Wunderground v.1.15,2013-08-26 21:10:00,
2013-08-26 17:12:00,71.1,65.7,29.88,SW,236,7.0,7.0,83,0.00,,,0.00,Wunderground v.1.15,2013-08-26 21:12:00,
2013-08-26 17:14:00,71.1,65.7,29.88,West,275,7.0,9.0,83,0.00,,,0.00,Wunderground v.1.15,2013-08-26 21:14:00,
2013-08-26 17:18:00,71.2,65.8,29.88,WSW,239,8.0,9.0,83,0.00,,,0.00,Wunderground v.1.15,2013-08-26 21:18:00,
2013-08-26 17:20:00,71.3,65.9,29.88,SW,224,8.0,8.0,83,0.00,,,0.00,Wunderground v.1.15,2013-08-26 21:20:00,
2013-08-26 17:22:00,71.3,65.9,29.89,WSW,249,8.0,8.0,83,0.00,,,0.00,Wunderground v.1.15,2013-08-26 21:22:00,
2013-08-26 17:24:00,71.3,65.9,29.89,SW,219,8.0,8.0,83,0.00,,,0.00,Wunderground v.1.15,2013-08-26 21:24:00,
2013-08-26 17:26:00,71.4,66.0,29.89,SW,223,8.0,8.0,83,0.00,,,0.00,Wunderground v.1.15,2013-08-26 21:26:00,
2013-08-26 17:28:00,71.3,65.9,29.89,WNW,284,8.0,8.0,83,0.00,,,0.00,Wunderground v.1.15,2013-08-26 21:28:00,
2013-08-26 17:30:00,71.3,65.9,29.89,SSW,209,7.0,7.0,83,0.00,,,0.00,Wunderground v.1.15,2013-08-26 21:30:00,
2013-08-26 17:32:00,71.2,65.8,29.89,NW,311,7.0,7.0,83,0.00,,,0.00,Wunderground v.1.15,2013-08-26 21:32:00,
2013-08-26 17:34:00,71.2,65.8,29.89,SW,218,7.0,7.0,83,0.00,,,0.00,Wunderground v.1.15,2013-08-26 21:34:00,
2013-08-26 17:36:00,71.1,65.7,29.88,SW,236,7.0,12.0,83,0.00,,,0.00,Wunderground v.1.15,2013-08-26 21:36:00,
2013-08-26 17:38:00,70.9,65.5,29.88,SW,231,6.0,12.0,83,0.00,,,0.00,Wunderground v.1.15,2013-08-26 21:38:00,
2013-08-26 17:40:00,70.7,65.6,29.88,WSW,239,7.0,7.0,84,0.00,,,0.00,Wunderground v.1.15,2013-08-26 21:40:00,
2013-08-26 17:44:00,70.5,65.4,29.88,WSW,238,8.0,12.0,84,0.00,,,0.00,Wunderground v.1.15,2013-08-26 21:44:00,
2013-08-26 17:46:00,70.4,65.7,29.88,SSW,207,8.0,12.0,85,0.00,,,0.00,Wunderground v.1.15,2013-08-26 21:46:00,
2013-08-26 17:52:00,70.1,65.7,29.88,SW,217,7.0,8.0,86,0.00,,,0.00,Wunderground v.1.15,2013-08-26 21:52:00,
2013-08-26 17:54:00,70.1,65.7,29.88,SSW,204,7.0,8.0,86,0.00,,,0.00,Wunderground v.1.15,2013-08-26 21:54:00,
2013-08-26 17:56:00,70.1,65.7,29.88,South,183,6.0,8.0,86,0.00,,,0.00,Wunderground v.1.15,2013-08-26 21:56:00,
2013-08-26 18:00:00,70.0,65.6,29.88,SSW,200,5.0,7.0,86,0.00,,,0.00,Wunderground v.1.15,2013-08-26 22:00:00,
2013-08-26 18:02:00,70.0,65.6,29.88,SSW,212,6.0,7.0,86,0.00,,,0.00,Wunderground v.1.15,2013-08-26 22:02:00,
2013-08-26 18:04:00,70.0,65.6,29.88,SSW,192,6.0,10.0,86,0.00,,,0.00,Wunderground v.1.15,2013-08-26 22:04:00,
2013-08-26 18:08:00,70.0,65.6,29.87,North,360,6.0,10.0,86,0.00,,,0.00,Wunderground v.1.15,2013-08-26 22:08:00,
2013-08-26 18:10:00,70.0,65.6,29.87,SSW,197,6.0,9.0,86,0.00,,,0.00,Wunderground v.1.15,2013-08-26 22:10:00,
2013-08-26 18:12:00,70.0,65.6,29.87,SW,232,6.0,9.0,86,0.00,,,0.00,Wunderground v.1.15,2013-08-26 22:12:00,
2013-08-26 18:14:00,70.1,66.0,29.87,SW,221,6.0,9.0,87,0.00,,,0.00,Wunderground v.1.15,2013-08-26 22:14:00,
2013-08-26 18:18:00,70.1,66.0,29.87,SSW,199,5.0,11.0,87,0.00,,,0.00,Wunderground v.1.15,2013-08-26 22:18:00,
2013-08-26 18:20:00,70.1,66.0,29.87,SSW,209,5.0,5.0,87,0.00,,,0.00,Wunderground v.1.15,2013-08-26 22:20:00,
2013-08-26 18:22:00,70.1,66.0,29.88,WSW,242,6.0,6.0,87,0.00,,,0.00,Wunderground v.1.15,2013-08-26 22:22:00,
2013-08-26 18:28:00,70.1,65.7,29.88,WSW,258,6.0,8.0,86,0.00,,,0.00,Wunderground v.1.15,2013-08-26 22:28:00,
2013-08-26 18:30:00,70.1,66.0,29.88,WSW,248,6.0,10.0,87,0.00,,,0.00,Wunderground v.1.15,2013-08-26 22:30:00,
2013-08-26 18:32:00,70.1,66.0,29.88,WSW,238,6.0,10.0,87,0.00,,,0.00,Wunderground v.1.15,2013-08-26 22:32:00,
2013-08-26 18:38:00,70.0,65.6,29.88,WSW,250,6.0,10.0,86,0.00,,,0.00,Wunderground v.1.15,2013-08-26 22:38:00,
2013-08-26 18:40:00,70.0,65.6,29.88,SSW,203,5.0,7.0,86,0.00,,,0.00,Wunderground v.1.15,2013-08-26 22:40:00,
2013-08-26 18:44:00,69.9,65.5,29.88,WSW,245,6.0,10.0,86,0.00,,,0.00,Wunderground v.1.15,2013-08-26 22:44:00,
2013-08-26 18:46:00,69.9,65.9,29.88,SW,228,6.0,10.0,87,0.00,,,0.00,Wunderground v.1.15,2013-08-26 22:46:00,
2013-08-26 18:48:00,69.8,65.8,29.88,SW,218,6.0,11.0,87,0.00,,,0.00,Wunderground v.1.15,2013-08-26 22:48:00,
2013-08-26 18:52:00,69.7,65.7,29.88,SW,227,6.0,16.0,87,0.00,,,0.00,Wunderground v.1.15,2013-08-26 22:52:00,
2013-08-26 18:54:00,69.6,65.6,29.88,West,279,7.0,16.0,87,0.00,,,0.00,Wunderground v.1.15,2013-08-26 22:54:00,
2013-08-26 18:58:00,69.6,65.6,29.88,South,186,6.0,16.0,87,0.00,,,0.00,Wunderground v.1.15,2013-08-26 22:58:00,
2013-08-26 19:00:00,69.5,65.5,29.88,SSW,202,6.0,6.0,87,0.00,,,0.00,Wunderground v.1.15,2013-08-26 23:00:00,
2013-08-26 19:02:00,69.5,65.5,29.88,SSW,203,4.0,6.0,87,0.00,,,0.00,Wunderground v.1.15,2013-08-26 23:02:00,
2013-08-26 19:04:00,69.5,65.5,29.88,WSW,247,4.0,6.0,87,0.00,,,0.00,Wunderground v.1.15,2013-08-26 23:04:00,
2013-08-26 19:06:00,69.4,65.4,29.88,WNW,292,4.0,6.0,87,0.00,,,0.00,Wunderground v.1.15,2013-08-26 23:06:00,
2013-08-26 19:08:00,69.4,65.7,29.88,SSW,211,5.0,6.0,88,0.00,,,0.00,Wunderground v.1.15,2013-08-26 23:08:00,
2013-08-26 19:10:00,69.4,65.7,29.88,SW,227,6.0,6.0,88,0.00,,,0.00,Wunderground v.1.15,2013-08-26 23:10:00,
2013-08-26 19:12:00,69.4,65.7,29.88,SW,234,6.0,6.0,88,0.00,,,0.00,Wunderground v.1.15,2013-08-26 23:12:00,
2013-08-26 19:14:00,69.4,65.7,29.88,SW,225,6.0,6.0,88,0.00,,,0.00,Wunderground v.1.15,2013-08-26 23:14:00,
2013-08-26 19:16:00,69.3,65.6,29.88,SSW,201,5.0,6.0,88,0.00,,,0.00,Wunderground v.1.15,2013-08-26 23:16:00,
2013-08-26 19:18:00,69.3,65.6,29.88,WSW,249,4.0,8.0,88,0.00,,,0.00,Wunderground v.1.15,2013-08-26 23:18:00,
2013-08-26 19:20:00,69.3,65.6,29.88,SW,229,4.0,4.0,88,0.00,,,0.00,Wunderground v.1.15,2013-08-26 23:20:00,
2013-08-26 19:22:00,69.3,65.6,29.87,SW,229,4.0,6.0,88,0.00,,,0.00,Wunderground v.1.15,2013-08-26 23:22:00,
2013-08-26 19:24:00,69.3,65.6,29.87,WSW,247,5.0,6.0,88,0.00,,,0.00,Wunderground v.1.15,2013-08-26 23:24:00,
2013-08-26 19:26:00,69.2,65.5,29.87,WSW,254,5.0,6.0,88,0.00,,,0.00,Wunderground v.1.15,2013-08-26 23:26:00,
2013-08-26 19:28:00,69.2,65.5,29.87,WSW,242,5.0,6.0,88,0.00,,,0.00,Wunderground v.1.15,2013-08-26 23:28:00,
2013-08-26 19:30:00,69.2,65.5,29.87,WSW,249,4.0,4.0,88,0.00,,,0.00,Wunderground v.1.15,2013-08-26 23:30:00,
2013-08-26 19:32:00,69.2,65.5,29.87,WSW,242,4.0,4.0,88,0.00,,,0.00,Wunderground v.1.15,2013-08-26 23:32:00,
2013-08-26 19:34:00,69.2,65.5,29.87,SW,233,4.0,4.0,88,0.00,,,0.00,Wunderground v.1.15,2013-08-26 23:34:00,
2013-08-26 19:36:00,69.2,65.5,29.87,SW,224,3.0,6.0,88,0.00,,,0.00,Wunderground v.1.15,2013-08-26 23:36:00,
2013-08-26 19:40:00,69.1,65.7,29.87,WNW,294,3.0,3.0,89,0.00,,,0.00,Wunderground v.1.15,2013-08-26 23:40:00,
2013-08-26 19:42:00,69.1,65.7,29.87,SW,230,3.0,4.0,89,0.00,,,0.00,Wunderground v.1.15,2013-08-26 23:42:00,
2013-08-26 19:44:00,69.1,65.7,29.87,SW,229,3.0,5.0,89,0.00,,,0.00,Wunderground v.1.15,2013-08-26 23:44:00,
2013-08-26 19:46:00,69.0,65.6,29.87,SSW,202,4.0,5.0,89,0.00,,,0.00,Wunderground v.1.15,2013-08-26 23:46:00,
2013-08-26 19:48:00,69.1,65.7,29.87,WSW,238,4.0,5.0,89,0.00,,,0.00,Wunderground v.1.15,2013-08-26 23:48:00,
2013-08-26 19:50:00,69.1,65.7,29.87,SW,228,4.0,6.0,89,0.00,,,0.00,Wunderground v.1.15,2013-08-26 23:50:00,
2013-08-26 19:52:00,69.1,65.7,29.87,SSW,205,5.0,6.0,89,0.00,,,0.00,Wunderground v.1.15,2013-08-26 23:52:00,
2013-08-26 19:54:00,69.1,65.7,29.87,WSW,252,6.0,6.0,89,0.00,,,0.00,Wunderground v.1.15,2013-08-26 23:54:00,
2013-08-26 19:58:00,69.2,65.8,29.87,SW,220,6.0,6.0,89,0.00,,,0.00,Wunderground v.1.15,2013-08-26 23:58:00,
2013-08-26 20:00:00,69.2,65.8,29.87,SW,227,6.0,6.0,89,0.00,,,0.00,Wunderground v.1.15,2013-08-27 00:00:00,
2013-08-26 20:04:00,69.2,65.8,29.87,West,278,5.0,6.0,89,0.00,,,0.00,Wunderground v.1.15,2013-08-27 00:04:00,
2013-08-26 20:06:00,69.2,65.8,29.87,SW,228,5.0,9.0,89,0.00,,,0.00,Wunderground v.1.15,2013-08-27 00:06:00,
2013-08-26 20:08:00,69.2,65.8,29.87,SSW,210,5.0,9.0,89,0.00,,,0.00,Wunderground v.1.15,2013-08-27 00:08:00,
2013-08-26 20:10:00,69.2,65.8,29.87,West,276,5.0,5.0,89,0.00,,,0.00,Wunderground v.1.15,2013-08-27 00:10:00,
2013-08-26 20:12:00,69.2,65.8,29.87,WSW,245,5.0,6.0,89,0.00,,,0.00,Wunderground v.1.15,2013-08-27 00:12:00,
2013-08-26 20:16:00,69.3,65.6,29.87,SW,236,6.0,6.0,88,0.00,,,0.00,Wunderground v.1.15,2013-08-27 00:16:00,
2013-08-26 20:18:00,69.3,65.6,29.87,SW,214,5.0,6.0,88,0.00,,,0.00,Wunderground v.1.15,2013-08-27 00:18:00,
2013-08-26 20:20:00,69.3,65.6,29.87,West,279,6.0,6.0,88,0.00,,,0.00,Wunderground v.1.15,2013-08-27 00:20:00,
2013-08-26 20:26:00,69.2,65.8,29.87,SW,223,4.0,6.0,89,0.00,,,0.00,Wunderground v.1.15,2013-08-27 00:26:00,
2013-08-26 20:28:00,69.2,65.8,29.87,SSW,198,4.0,6.0,89,0.00,,,0.00,Wunderground v.1.15,2013-08-27 00:28:00,
2013-08-26 20:30:00,69.2,65.8,29.87,WSW,249,4.0,4.0,89,0.00,,,0.00,Wunderground v.1.15,2013-08-27 00:30:00,
2013-08-26 20:32:00,69.2,65.8,29.87,SW,235,4.0,4.0,89,0.00,,,0.00,Wunderground v.1.15,2013-08-27 00:32:00,
2013-08-26 20:36:00,69.1,65.7,29.87,WSW,257,4.0,4.0,89,0.00,,,0.00,Wunderground v.1.15,2013-08-27 00:36:00,
2013-08-26 20:38:00,69.1,65.7,29.87,WSW,252,3.0,9.0,89,0.00,,,0.00,Wunderground v.1.15,2013-08-27 00:38:00,
2013-08-26 20:40:00,69.1,65.7,29.87,WNW,284,4.0,4.0,89,0.00,,,0.00,Wunderground v.1.15,2013-08-27 00:40:00,
2013-08-26 20:44:00,69.1,65.7,29.87,WSW,250,5.0,10.0,89,0.00,,,0.00,Wunderground v.1.15,2013-08-27 00:44:00,
2013-08-26 20:46:00,69.1,65.7,29.87,WSW,258,6.0,10.0,89,0.00,,,0.00,Wunderground v.1.15,2013-08-27 00:46:00,
2013-08-26 20:52:00,69.1,66.0,29.87,WSW,251,6.0,6.0,90,0.00,,,0.00,Wunderground v.1.15,2013-08-27 00:52:00,
2013-08-26 20:54:00,69.1,66.0,29.87,WSW,242,5.0,6.0,90,0.00,,,0.00,Wunderground v.1.15,2013-08-27 00:54:00,
2013-08-26 20:58:00,69.0,65.9,29.87,West,273,5.0,9.0,90,0.00,,,0.00,Wunderground v.1.15,2013-08-27 00:58:00,
2013-08-26 21:02:00,69.0,65.9,29.87,WNW,286,6.0,11.0,90,0.00,,,0.00,Wunderground v.1.15,2013-08-27 01:02:00,
2013-08-26 21:04:00,69.0,65.9,29.87,SW,233,6.0,11.0,90,0.00,,,0.00,Wunderground v.1.15,2013-08-27 01:04:00,
2013-08-26 21:08:00,69.1,66.0,29.88,SSW,196,6.0,13.0,90,0.00,,,0.00,Wunderground v.1.15,2013-08-27 01:08:00,
2013-08-26 21:12:00,69.1,66.0,29.88,WNW,290,6.0,6.0,90,0.00,,,0.00,Wunderground v.1.15,2013-08-27 01:12:00,
2013-08-26 21:14:00,69.1,66.0,29.88,SW,229,6.0,6.0,90,0.00,,,0.00,Wunderground v.1.15,2013-08-27 01:14:00,
2013-08-26 21:16:00,69.2,66.1,29.88,SW,215,5.0,6.0,90,0.00,,,0.00,Wunderground v.1.15,2013-08-27 01:16:00,
2013-08-26 21:18:00,69.2,66.1,29.88,SSW,205,5.0,10.0,90,0.00,,,0.00,Wunderground v.1.15,2013-08-27 01:18:00,
2013-08-26 21:22:00,69.1,66.0,29.86,WNW,288,5.0,6.0,90,0.00,,,0.00,Wunderground v.1.15,2013-08-27 01:22:00,
2013-08-26 21:24:00,69.1,66.0,29.86,West,269,5.0,6.0,90,0.00,,,0.00,Wunderground v.1.15,2013-08-27 01:24:00,
2013-08-26 21:28:00,69.1,66.0,29.86,SW,233,5.0,6.0,90,0.00,,,0.00,Wunderground v.1.15,2013-08-27 01:28:00,
2013-08-26 21:30:00,69.1,66.0,29.86,SW,223,5.0,5.0,90,0.00,,,0.00,Wunderground v.1.15,2013-08-27 01:30:00,
2013-08-26 21:32:00,69.1,66.0,29.86,West,266,5.0,5.0,90,0.00,,,0.00,Wunderground v.1.15,2013-08-27 01:32:00,
2013-08-26 21:36:00,69.1,66.0,29.85,SSW,196,4.0,5.0,90,0.00,,,0.00,Wunderground v.1.15,2013-08-27 01:36:00,
2013-08-26 21:38:00,69.2,66.1,29.85,WNW,282,4.0,5.0,90,0.00,,,0.00,Wunderground v.1.15,2013-08-27 01:38:00,
2013-08-26 21:42:00,69.2,66.1,29.85,West,267,5.0,6.0,90,0.00,,,0.00,Wunderground v.1.15,2013-08-27 01:42:00,
2013-08-26 21:44:00,69.2,66.1,29.85,WSW,255,5.0,6.0,90,0.00,,,0.00,Wunderground v.1.15,2013-08-27 01:44:00,
2013-08-26 21:46:00,69.2,66.1,29.85,SSW,197,4.0,6.0,90,0.00,,,0.00,Wunderground v.1.15,2013-08-27 01:46:00,
2013-08-26 21:48:00,69.3,66.2,29.85,SW,232,4.0,6.0,90,0.00,,,0.00,Wunderground v.1.15,2013-08-27 01:48:00,
2013-08-26 21:54:00,69.3,66.2,29.85,SW,234,4.0,4.0,90,0.00,,,0.00,Wunderground v.1.15,2013-08-27 01:54:00,
2013-08-26 21:56:00,69.3,66.2,29.85,SW,215,4.0,5.0,90,0.00,,,0.00,Wunderground v.1.15,2013-08-27 01:56:00,
2013-08-26 22:02:00,69.3,66.2,29.85,West,275,4.0,9.0,90,0.00,,,0.00,Wunderground v.1.15,2013-08-27 02:02:00,
2013-08-26 22:06:00,69.3,66.2,29.86,WSW,246,4.0,9.0,90,0.00,,,0.00,Wunderground v.1.15,2013-08-27 02:06:00,
2013-08-26 22:08:00,69.3,66.2,29.86,WNW,285,4.0,9.0,90,0.00,,,0.00,Wunderground v.1.15,2013-08-27 02:08:00,
2013-08-26 22:10:00,69.3,66.2,29.86,WNW,285,4.0,16.0,90,0.00,,,0.00,Wunderground v.1.15,2013-08-27 02:10:00,
2013-08-26 22:12:00,69.3,66.2,29.86,SW,227,5.0,16.0,90,0.00,,,0.00,Wunderground v.1.15,2013-08-27 02:12:00,
2013-08-26 22:16:00,69.4,66.3,29.86,West,269,5.0,16.0,90,0.00,,,0.00,Wunderground v.1.15,2013-08-27 02:16:00,
2013-08-26 22:18:00,69.4,66.3,29.86,SW,221,6.0,16.0,90,0.00,,,0.00,Wunderground v.1.15,2013-08-27 02:18:00,
2013-08-26 22:20:00,69.4,66.3,29.86,SSW,212,6.0,6.0,90,0.00,,,0.00,Wunderground v.1.15,2013-08-27 02:20:00,
2013-08-26 22:22:00,69.4,66.3,29.86,SW,214,6.0,6.0,90,0.00,,,0.00,Wunderground v.1.15,2013-08-27 02:22:00,
2013-08-26 22:24:00,69.4,66.3,29.86,SW,215,6.0,9.0,90,0.00,,,0.00,Wunderground v.1.15,2013-08-27 02:24:00,
2013-08-26 22:26:00,69.4,66.7,29.86,SSW,209,6.0,9.0,91,0.00,,,0.00,Wunderground v.1.15,2013-08-27 02:26:00,
2013-08-26 22:28:00,69.4,66.3,29.86,SW,231,6.0,9.0,90,0.00,,,0.00,Wunderground v.1.15,2013-08-27 02:28:00,
2013-08-26 22:34:00,69.3,66.6,29.86,WSW,239,6.0,10.0,91,0.00,,,0.00,Wunderground v.1.15,2013-08-27 02:34:00,
2013-08-26 22:38:00,69.4,66.7,29.86,SW,233,6.0,10.0,91,0.00,,,0.00,Wunderground v.1.15,2013-08-27 02:38:00,
2013-08-26 22:40:00,69.4,66.7,29.86,SW,215,6.0,6.0,91,0.00,,,0.00,Wunderground v.1.15,2013-08-27 02:40:00,
2013-08-26 22:44:00,69.4,66.7,29.86,SW,231,6.0,9.0,91,0.00,,,0.00,Wunderground v.1.15,2013-08-27 02:44:00,
2013-08-26 22:46:00,69.4,66.7,29.86,SSW,213,6.0,9.0,91,0.00,,,0.00,Wunderground v.1.15,2013-08-27 02:46:00,
2013-08-26 22:48:00,69.4,66.7,29.86,West,279,6.0,9.0,91,0.00,,,0.00,Wunderground v.1.15,2013-08-27 02:48:00,
2013-08-26 22:50:00,69.4,66.7,29.86,SW,234,5.0,5.0,91,0.00,,,0.00,Wunderground v.1.15,2013-08-27 02:50:00,
2013-08-26 22:56:00,69.4,66.7,29.86,WSW,243,4.0,6.0,91,0.00,,,0.00,Wunderground v.1.15,2013-08-27 02:56:00,
2013-08-26 22:58:00,69.4,66.7,29.86,WSW,252,3.0,9.0,91,0.00,,,0.00,Wunderground v.1.15,2013-08-27 02:58:00,
2013-08-26 23:00:00,69.4,66.7,29.86,SW,232,3.0,11.0,91,0.00,,,0.00,Wunderground v.1.15,2013-08-27 03:00:00,
2013-08-26 23:04:00,69.4,66.7,29.86,WSW,256,4.0,11.0,91,0.00,,,0.00,Wunderground v.1.15,2013-08-27 03:04:00,
2013-08-26 23:06:00,69.5,66.8,29.85,SW,214,4.0,11.0,91,0.00,,,0.00,Wunderground v.1.15,2013-08-27 03:06:00,
2013-08-26 23:10:00,69.5,66.8,29.85,West,265,5.0,5.0,91,0.00,,,0.00,Wunderground v.1.15,2013-08-27 03:10:00,
2013-08-26 23:12:00,69.4,66.7,29.85,SSW,205,4.0,5.0,91,0.00,,,0.00,Wunderground v.1.15,2013-08-27 03:12:00,
2013-08-26 23:14:00,69.4,66.7,29.85,NW,316,4.0,5.0,91,0.00,,,0.00,Wunderground v.1.15,2013-08-27 03:14:00,
2013-08-26 23:16:00,69.4,66.7,29.85,WSW,248,4.0,5.0,91,0.00,,,0.00,Wunderground v.1.15,2013-08-27 03:16:00,
2013-08-26 23:18:00,69.4,66.7,29.85,WSW,257,4.0,5.0,91,0.00,,,0.00,Wunderground v.1.15,2013-08-27 03:18:00,
2013-08-26 23:20:00,69.4,66.7,29.85,West,260,4.0,4.0,91,0.00,,,0.00,Wunderground v.1.15,2013-08-27 03:20:00,
2013-08-26 23:24:00,69.4,66.7,29.85,SW,217,4.0,5.0,91,0.00,,,0.00,Wunderground v.1.15,2013-08-27 03:24:00,
2013-08-26 23:26:00,69.3,66.6,29.85,SSW,204,4.0,5.0,91,0.00,,,0.00,Wunderground v.1.15,2013-08-27 03:26:00,
2013-08-26 23:28:00,69.3,66.6,29.85,WSW,256,4.0,5.0,91,0.00,,,0.00,Wunderground v.1.15,2013-08-27 03:28:00,
2013-08-26 23:30:00,69.4,66.7,29.85,SW,216,4.0,4.0,91,0.00,,,0.00,Wunderground v.1.15,2013-08-27 03:30:00,
2013-08-26 23:34:00,69.3,66.6,29.85,WSW,238,4.0,11.0,91,0.00,,,0.00,Wunderground v.1.15,2013-08-27 03:34:00,
2013-08-26 23:36:00,69.3,66.6,29.85,SW,220,4.0,11.0,91,0.00,,,0.00,Wunderground v.1.15,2013-08-27 03:36:00,
2013-08-26 23:38:00,69.3,66.6,29.85,West,267,4.0,11.0,91,0.00,,,0.00,Wunderground v.1.15,2013-08-27 03:38:00,
2013-08-26 23:40:00,69.3,66.6,29.85,West,269,4.0,5.0,91,0.00,,,0.00,Wunderground v.1.15,2013-08-27 03:40:00,
2013-08-26 23:44:00,69.3,66.6,29.85,West,271,4.0,5.0,91,0.00,,,0.00,Wunderground v.1.15,2013-08-27 03:44:00,
2013-08-26 23:46:00,69.4,66.7,29.85,SW,223,4.0,5.0,91,0.00,,,0.00,Wunderground v.1.15,2013-08-27 03:46:00,
2013-08-26 23:48:00,69.4,66.7,29.85,West,264,4.0,5.0,91,0.00,,,0.00,Wunderground v.1.15,2013-08-27 03:48:00,
2013-08-26 23:52:00,69.4,66.7,29.85,West,263,4.0,5.0,91,0.00,,,0.00,Wunderground v.1.15,2013-08-27 03:52:00,
2013-08-26 23:54:00,69.5,66.8,29.85,WNW,290,5.0,5.0,91,0.00,,,0.00,Wunderground v.1.15,2013-08-27 03:54:00,
2013-08-26 23:58:00,69.6,66.9,29.85,SW,219,5.0,5.0,91,0.00,,,0.00,Wunderground v.1.15,2013-08-27 03:58:00,